Location: Wellington
(41.3000°S, 174.8000°E)
Time: 03:02:49
(UTC+12:00)

ISS - Visible Passes

Search period start: 09 June 2026 00:00
Search period end: 19 June 2026 00:00
Orbit: 413 x 422 km, 51.6° (Epoch: 7 June)

Date Brightness Start Highest point End Pass type
(mag) Time Alt. Az. Time Alt. Az. Time Alt. Az.
11 Jun -1.6 19:02:51 10° NNW 19:04:07 19° N 19:04:07 19° N visible
12 Jun -2.0 18:15:31 10° N 18:17:55 18° NE 18:18:19 18° ENE visible
12 Jun -0.3 19:51:02 10° WNW 19:51:16 11° WNW 19:51:16 11° WNW visible
13 Jun -1.3 17:29:22 10° NE 17:29:59 10° NE 17:30:37 10° ENE visible
13 Jun -2.8 19:02:51 10° NW 19:05:22 48° NW 19:05:22 48° NW visible
14 Jun -3.4 18:14:50 10° NW 18:18:07 51° NE 18:19:24 31° E visible
14 Jun -0.3 19:52:05 10° W 19:52:20 11° W 19:52:20 11° W visible
15 Jun -2.5 17:27:05 10° NNW 17:30:03 29° NE 17:33:04 10° ESE visible
15 Jun -2.4 19:03:33 10° W 19:06:16 35° SW 19:06:16 35° SW visible
16 Jun -3.4 18:15:09 10° WNW 18:18:29 58° SSW 18:20:09 27° SE visible
17 Jun -3.7 17:26:53 10° NW 17:30:16 85° NNE 17:33:42 10° SE visible
17 Jun -1.6 19:04:41 10° WSW 19:06:52 21° SSW 19:06:52 21° SSW visible
18 Jun -2.2 18:16:02 10° W 18:19:00 28° SSW 18:20:37 19° SSE visible
